DW9210 Weather Reports


Display with metric or nautical units.
time (UTC)temp
F
wind
direction
speed
MPH
gust
MPH
rain 1hr
in
rain 24hr
in
rain mn
in
humidity
%
barometer
mb
20260831152003 87 265 3.0 9.0 0.00 0.00 0.00 74 1018.5
20260831151503 87 261 3.0 8.0 0.00 0.00 0.00 71 1018.5
20260831151003 87 243 3.0 7.0 0.00 0.00 0.00 73 1018.6
20260831150503 86 250 3.0 7.0 0.00 0.00 0.00 74 1018.5
20260831150024 86 258 2.0 7.0 0.00 0.00 0.00 73 1018.5
20260831145503 85 251 3.0 8.0 0.00 0.00 0.00 77 1018.6
20260831145003 85 252 3.0 8.0 0.00 0.00 0.00 73 1018.5
20260831144503 85 259 3.0 8.0 0.00 0.00 0.00 75 1018.5
20260831144003 84 260 3.0 7.0 0.00 0.00 0.00 77 1018.4
20260831143503 84 261 3.0 7.0 0.00 0.00 0.00 77 1018.4
20260831143003 84 264 3.0 7.0 0.00 0.00 0.00 78 1018.3
20260831142503 84 269 2.0 6.0 0.00 0.00 0.00 79 1018.3
20260831142003 83 267 2.0 6.0 0.00 0.00 0.00 81 1018.3
20260831141503 83 258 2.0 6.0 0.00 0.00 0.00 79 1018.3
20260831141003 82 255 2.0 5.0 0.00 0.00 0.00 80 1018.2
20260831140503 81 255 2.0 6.0 0.00 0.00 0.00 82 1018.3
20260831140003 81 243 2.0 6.0 0.00 0.00 0.00 82 1018.2
20260831135503 80 237 3.0 6.0 0.00 0.00 0.00 82 1018.3
20260831135003 80 234 3.0 6.0 0.00 0.00 0.00 83 1018.2
20260831134503 79 230 1.0 4.0 0.00 0.00 0.00 86 1018.2
20260831134003 78 211 1.0 4.0 0.00 0.00 0.00 88 1018.2
20260831133503 77 209 1.0 4.0 0.00 0.00 0.00 89 1018.2
20260831133003 76 215 1.0 4.0 0.00 0.00 0.00 91 1018.2
20260831132503 75 213 1.0 3.0 0.00 0.00 0.00 93 1018.2
20260831132003 74 214 1.0 3.0 0.00 0.00 0.00 94 1018.3
20260831131503 74 207 1.0 3.0 0.00 0.00 0.00 94 1018.3
20260831131003 73 203 1.0 3.0 0.00 0.00 0.00 95 1018.3
20260831130503 73 205 1.0 2.0 0.00 0.00 0.00 95 1018.2
20260831130024 73 203 1.0 3.0 0.00 0.00 0.00 96 1018.2
20260831125503 72 208 0.0 3.0 0.00 0.00 0.00 97 1018.2
20260831125003 72 215 0.0 2.0 0.00 0.00 0.00 97 1018.2
20260831124503 72 0 0.0 0.0 0.00 0.00 0.00 97 1018.1
20260831124003 71 0 0.0 0.0 0.00 0.00 0.00 97 1018.1
20260831123503 71 0 0.0 0.0 0.00 0.00 0.00 97 1018.1
20260831123003 71 0 0.0 0.0 0.00 0.00 0.00 97 1018.1
20260831122503 71 0 0.0 0.0 0.00 0.00 0.00 98 1018.2
20260831122003 70 0 0.0 0.0 0.00 0.00 0.00 97 1018.0
20260831121503 70 0 0.0 0.0 0.00 0.00 0.00 97 1018.0
20260831121003 70 0 0.0 0.0 0.00 0.00 0.00 97 1018.0
20260831120524 69 0 0.0 0.0 0.00 0.00 0.00 97 1017.9
20260831120003 69 0 0.0 0.0 0.00 0.00 0.00 97 1017.8
20260831115524 69 0 0.0 0.0 0.00 0.00 0.00 97 1017.7
20260831115003 68 0 0.0 0.0 0.00 0.00 0.00 97 1017.7
20260831114503 68 0 0.0 0.0 0.00 0.00 0.00 97 1017.7
20260831114003 68 0 0.0 0.0 0.00 0.00 0.00 97 1017.7
20260831113503 68 0 0.0 0.0 0.00 0.00 0.00 97 1017.7
20260831113003 68 0 0.0 0.0 0.00 0.00 0.00 97 1017.6
20260831112503 69 0 0.0 0.0 0.00 0.00 0.00 97 1017.5
20260831112003 68 0 0.0 0.0 0.00 0.00 0.00 97 1017.4
20260831111503 69 0 0.0 0.0 0.00 0.00 0.00 97 1017.4
20260831111003 69 0 0.0 0.0 0.00 0.00 0.00 97 1017.3
20260831110503 69 0 0.0 0.0 0.00 0.00 0.00 97 1017.3
20260831110024 69 0 0.0 0.0 0.00 0.00 0.00 97 1017.2
20260831105503 69 0 0.0 0.0 0.00 0.00 0.00 97 1017.1
20260831105024 68 0 0.0 0.0 0.00 0.00 0.00 97 1017.1
20260831104503 68 0 0.0 0.0 0.00 0.00 0.00 97 1017.1
20260831104003 68 0 0.0 0.0 0.00 0.00 0.00 97 1017.0
20260831103503 68 0 0.0 0.0 0.00 0.00 0.00 97 1017.0
20260831103003 68 0 0.0 0.0 0.00 0.00 0.00 97 1017.0
20260831102503 68 0 0.0 0.0 0.00 0.00 0.00 97 1016.9
20260831102003 68 0 0.0 0.0 0.00 0.00 0.00 97 1016.9
20260831101503 68 0 0.0 0.0 0.00 0.00 0.00 97 1016.8
20260831101003 68 0 0.0 0.0 0.00 0.00 0.00 96 1016.8
20260831100503 68 0 0.0 0.0 0.00 0.00 0.00 96 1016.7
20260831100003 68 0 0.0 0.0 0.00 0.00 0.00 96 1016.6
20260831095524 68 0 0.0 0.0 0.00 0.00 0.00 96 1016.6
20260831095024 68 0 0.0 0.0 0.00 0.00 0.00 96 1016.6
20260831094503 68 0 0.0 0.0 0.00 0.00 0.00 96 1016.4
20260831094003 68 0 0.0 0.0 0.00 0.00 0.00 96 1016.5
20260831093503 68 0 0.0 0.0 0.00 0.00 0.00 97 1016.6
20260831093003 68 0 0.0 0.0 0.00 0.00 0.00 97 1016.6
20260831092524 68 0 0.0 0.0 0.00 0.00 0.00 97 1016.6
20260831092003 68 0 0.0 0.0 0.00 0.00 0.00 97 1016.6
20260831091503 68 0 0.0 0.0 0.00 0.00 0.00 96 1016.7
20260831091003 68 0 0.0 0.0 0.00 0.00 0.00 96 1016.6
20260831090524 68 0 0.0 0.0 0.00 0.00 0.00 97 1016.6
20260831090003 68 0 0.0 0.0 0.00 0.00 0.00 97 1016.5
20260831085524 68 0 0.0 0.0 0.00 0.00 0.00 96 1016.5
20260831085003 67 0 0.0 0.0 0.00 0.00 0.00 96 1016.4
20260831084503 68 0 0.0 0.0 0.00 0.00 0.00 96 1016.4
20260831084003 68 0 0.0 0.0 0.00 0.00 0.00 96 1016.3
20260831083524 68 0 0.0 0.0 0.00 0.00 0.00 96 1016.3
20260831083003 68 0 0.0 0.0 0.00 0.00 0.00 96 1016.2
20260831082503 68 0 0.0 0.0 0.00 0.00 0.00 96 1016.3
20260831082003 68 0 0.0 0.0 0.00 0.00 0.00 96 1016.3
20260831081503 68 0 0.0 0.0 0.00 0.00 0.00 96 1016.3
20260831081003 68 0 0.0 0.0 0.00 0.00 0.00 96 1016.3
20260831080524 68 0 0.0 0.0 0.00 0.00 0.00 96 1016.3
20260831080003 68 0 0.0 0.0 0.00 0.00 0.00 96 1016.3
20260831075503 68 0 0.0 0.0 0.00 0.00 0.00 96 1016.4
20260831075003 68 0 0.0 0.0 0.00 0.00 0.00 96 1016.4
20260831074524 68 0 0.0 0.0 0.00 0.00 0.00 96 1016.4
20260831074003 68 0 0.0 0.0 0.00 0.00 0.00 96 1016.5
20260831073503 68 0 0.0 0.0 0.00 0.00 0.00 95 1016.5
20260831073003 68 0 0.0 0.0 0.00 0.00 0.00 96 1016.5
20260831072503 68 0 0.0 0.0 0.00 0.00 0.00 96 1016.5
20260831072003 68 0 0.0 0.0 0.00 0.00 0.00 96 1016.6
20260831071503 68 0 0.0 0.0 0.00 0.00 0.00 96 1016.6
20260831071003 68 0 0.0 0.0 0.00 0.00 0.00 96 1016.7
20260831070503 68 0 0.0 0.0 0.00 0.00 0.00 96 1016.7
20260831070003 68 0 0.0 0.0 0.00 0.00 0.00 95 1016.8
20260831065503 68 0 0.0 0.0 0.00 0.00 0.00 95 1016.8
20260831065003 68 0 0.0 0.0 0.00 0.00 0.00 95 1016.7
20260831064503 69 0 0.0 0.0 0.00 0.00 0.00 95 1016.6
20260831064003 69 0 0.0 0.0 0.00 0.00 0.00 95 1016.6
20260831063503 69 0 0.0 0.0 0.00 0.00 0.00 95 1016.7
20260831063003 69 0 0.0 0.0 0.00 0.00 0.00 95 1016.7
20260831062503 69 0 0.0 0.0 0.00 0.00 0.00 95 1016.7
20260831062003 69 0 0.0 0.0 0.00 0.00 0.00 95 1016.8
20260831061503 69 0 0.0 0.0 0.00 0.00 0.00 95 1016.8
20260831061003 69 0 0.0 0.0 0.00 0.00 0.00 95 1016.7
20260831060503 69 0 0.0 0.0 0.00 0.00 0.00 95 1016.8
20260831060003 69 0 0.0 0.0 0.00 0.00 0.00 95 1016.8
20260831055503 69 0 0.0 0.0 0.00 0.00 0.00 95 1016.8
20260831055003 69 0 0.0 0.0 0.00 0.00 0.00 95 1016.9
20260831054503 69 0 0.0 0.0 0.00 0.00 0.00 95 1016.9
20260831054003 69 0 0.0 0.0 0.00 0.00 0.00 95 1016.9
20260831053503 69 0 0.0 0.0 0.00 0.00 0.00 95 1016.9
20260831053003 69 0 0.0 0.0 0.00 0.00 0.00 95 1017.0
20260831052503 70 0 0.0 0.0 0.00 0.00 0.00 95 1017.0
20260831052003 70 0 0.0 0.0 0.00 0.00 0.00 95 1017.0
20260831051503 70 0 0.0 0.0 0.00 0.00 0.00 95 1017.0
20260831051003 70 0 0.0 0.0 0.00 0.00 0.00 95 1017.0
20260831050503 70 0 0.0 0.0 0.00 0.00 0.00 95 1017.0
20260831050024 70 0 0.0 0.0 0.00 0.00 0.00 95 1016.9
20260831045503 70 0 0.0 0.0 0.00 0.00 0.00 94 1016.9
20260831045003 70 0 0.0 0.0 0.00 0.00 0.00 95 1016.9
20260831044503 70 0 0.0 0.0 0.00 0.00 0.00 95 1016.8
20260831044024 70 0 0.0 0.0 0.00 0.00 0.00 95 1016.9
20260831043524 70 0 0.0 0.0 0.00 0.00 0.00 94 1016.9
20260831043003 70 0 0.0 0.0 0.00 0.00 0.00 94 1017.0
20260831042503 70 0 0.0 0.0 0.00 0.00 0.00 94 1016.9
20260831042003 70 0 0.0 0.0 0.00 0.00 0.00 94 1016.9
20260831041545 70 0 0.0 0.0 0.00 0.00 0.00 94 1016.9
20260831041003 70 0 0.0 0.0 0.00 0.00 0.00 94 1017.0
20260831040503 70 0 0.0 0.0 0.00 0.00 0.00 94 1017.0
20260831040003 70 0 0.0 0.0 0.00 0.00 0.00 94 1017.1
20260831035503 70 0 0.0 0.0 0.00 0.00 0.00 94 1017.0
20260831035003 70 0 0.0 0.0 0.00 0.00 0.00 93 1017.0
20260831034503 70 0 0.0 0.0 0.00 0.00 0.00 94 1017.1
20260831034024 70 0 0.0 0.0 0.00 0.00 0.00 94 1017.1
20260831033503 70 0 0.0 0.0 0.00 0.00 0.00 93 1017.1
20260831033003 71 0 0.0 0.0 0.00 0.00 0.00 93 1017.0
20260831032503 71 0 0.0 0.0 0.00 0.00 0.00 93 1017.1
20260831032003 71 0 0.0 0.0 0.00 0.00 0.00 93 1017.1
20260831031503 71 0 0.0 0.0 0.00 0.00 0.00 93 1017.1
20260831031003 71 0 0.0 0.0 0.00 0.00 0.00 93 1017.1
20260831030503 71 0 0.0 0.0 0.00 0.00 0.00 93 1017.1
20260831030003 71 0 0.0 0.0 0.00 0.00 0.00 93 1017.1
20260831025503 71 0 0.0 0.0 0.00 0.00 0.00 93 1017.0
20260831025003 72 0 0.0 0.0 0.00 0.00 0.00 93 1017.0
20260831024503 72 0 0.0 0.0 0.00 0.00 0.00 92 1017.0
20260831024003 72 0 0.0 0.0 0.00 0.00 0.00 92 1017.1
20260831023503 72 0 0.0 0.0 0.00 0.00 0.00 92 1017.0
20260831023003 72 0 0.0 0.0 0.00 0.00 0.00 92 1017.0
20260831022524 72 0 0.0 0.0 0.00 0.00 0.00 93 1016.9
20260831022003 72 0 0.0 0.0 0.00 0.00 0.00 92 1017.0
20260831021524 72 0 0.0 0.0 0.00 0.00 0.00 92 1017.1
20260831021003 72 0 0.0 0.0 0.00 0.00 0.00 91 1017.1
20260831020503 73 0 0.0 0.0 0.00 0.00 0.00 92 1017.1
20260831020003 73 0 0.0 0.0 0.00 0.00 0.00 92 1017.0
20260831015503 73 0 0.0 0.0 0.00 0.00 0.00 91 1017.0
20260831015003 73 0 0.0 0.0 0.00 0.00 0.00 91 1016.9
20260831014503 74 0 0.0 0.0 0.00 0.00 0.00 91 1016.9
20260831014003 74 0 0.0 0.0 0.00 0.00 0.00 90 1016.7
20260831013503 74 0 0.0 0.0 0.00 0.00 0.00 90 1016.7
20260831013003 74 0 0.0 0.0 0.00 0.00 0.00 90 1016.6
20260831012503 74 0 0.0 0.0 0.00 0.00 0.00 90 1016.6
20260831012003 74 0 0.0 0.0 0.00 0.00 0.00 89 1016.6
20260831011503 75 0 0.0 0.0 0.00 0.00 0.00 88 1016.6
20260831011003 75 0 0.0 0.0 0.00 0.00 0.00 88 1016.5
20260831010503 75 0 0.0 0.0 0.00 0.00 0.00 88 1016.3
20260831010003 76 0 0.0 0.0 0.00 0.00 0.00 87 1016.3
20260831005524 76 0 0.0 0.0 0.00 0.00 0.00 87 1016.3
20260831005024 76 0 0.0 0.0 0.00 0.00 0.00 85 1016.2
20260831004524 77 0 0.0 0.0 0.00 0.00 0.00 84 1016.2
20260831004003 77 0 0.0 0.0 0.00 0.00 0.00 83 1016.1
20260831003503 78 0 0.0 0.0 0.00 0.00 0.00 82 1016.0
20260831003003 78 0 0.0 0.0 0.00 0.00 0.00 81 1016.1
20260831002503 79 0 0.0 0.0 0.00 0.00 0.00 78 1016.0
20260831002003 79 0 0.0 0.0 0.00 0.00 0.00 77 1016.0
20260831001503 80 0 0.0 0.0 0.00 0.00 0.00 75 1016.1
20260831001024 81 0 0.0 0.0 0.00 0.00 0.00 75 1016.0
20260831000503 82 0 0.0 0.0 0.00 0.00 0.00 73 1016.0
20260831000003 82 0 0.0 0.0 0.00 0.00 0.00 71 1016.0
20260830235503 83 194 0.0 1.0 0.00 0.00 0.00 69 1016.0
20260830235003 84 195 0.0 1.0 0.00 0.00 0.00 69 1015.9
20260830234503 84 188 0.0 1.0 0.00 0.00 0.00 67 1016.0
20260830234003 85 186 0.0 1.0 0.00 0.00 0.00 67 1015.9
20260830233503 86 194 0.0 2.0 0.00 0.00 0.00 64 1015.7
20260830233003 87 201 0.0 2.0 0.00 0.00 0.00 61 1015.8
20260830232503 88 203 0.0 2.0 0.00 0.00 0.00 57 1015.6
20260830232003 89 203 0.0 2.0 0.00 0.00 0.00 56 1015.6
20260830231503 90 209 0.0 3.0 0.00 0.00 0.00 56 1015.6
20260830231003 90 208 1.0 3.0 0.00 0.00 0.00 54 1015.6
20260830230503 91 210 1.0 2.0 0.00 0.00 0.00 53 1015.8
20260830230003 91 212 1.0 3.0 0.00 0.00 0.00 51 1015.8
20260830225503 91 225 1.0 3.0 0.00 0.00 0.00 52 1015.8
20260830225003 91 232 1.0 3.0 0.00 0.00 0.00 51 1015.7
20260830224503 91 240 1.0 2.0 0.00 0.00 0.00 50 1015.8
20260830224003 91 244 1.0 4.0 0.00 0.00 0.00 52 1015.8
20260830223503 91 243 1.0 4.0 0.00 0.00 0.00 53 1015.8
20260830223003 91 238 1.0 2.0 0.00 0.00 0.00 51 1015.9
20260830222524 90 238 1.0 2.0 0.00 0.00 0.00 52 1016.0
20260830222024 90 246 0.0 1.0 0.00 0.00 0.00 54 1016.0
20260830221503 90 246 0.0 1.0 0.00 0.00 0.00 59 1016.1
20260830221003 89 245 1.0 2.0 0.00 0.00 0.00 57 1016.2
20260830220503 89 255 1.0 3.0 0.00 0.00 0.00 56 1016.1
20260830220024 89 258 1.0 3.0 0.00 0.00 0.00 52 1016.1
20260830215524 90 262 1.0 7.0 0.00 0.00 0.00 52 1016.0
20260830215003 90 278 2.0 7.0 0.00 0.00 0.00 46 1016.0
20260830214503 91 289 2.0 4.0 0.00 0.00 0.00 54 1016.1
20260830214003 91 277 2.0 6.0 0.00 0.00 0.00 54 1016.1
20260830213503 92 252 3.0 6.0 0.00 0.00 0.00 48 1016.2
20260830213003 92 234 3.0 5.0 0.00 0.00 0.00 44 1016.3
20260830212524 92 250 3.0 7.0 0.00 0.00 0.00 45 1016.2
20260830212003 92 269 2.0 7.0 0.00 0.00 0.00 49 1016.3
20260830211503 92 273 2.0 5.0 0.00 0.00 0.00 50 1016.3
20260830211003 92 255 1.0 5.0 0.00 0.00 0.00 48 1016.3
20260830210503 92 235 2.0 6.0 0.00 0.00 0.00 46 1016.4
20260830210003 92 244 2.0 6.0 0.00 0.00 0.00 47 1016.5
20260830205503 93 255 2.0 6.0 0.00 0.00 0.00 51 1016.5
20260830205003 92 242 2.0 6.0 0.00 0.00 0.00 52 1016.5
20260830204503 92 247 2.0 6.0 0.00 0.00 0.00 51 1016.5
20260830204024 92 329 1.0 3.0 0.00 0.00 0.00 51 1016.5
20260830203503 92 291 1.0 5.0 0.00 0.00 0.00 49 1016.5
20260830203024 92 288 2.0 5.0 0.00 0.00 0.00 49 1016.5
20260830202503 92 277 3.0 6.0 0.00 0.00 0.00 53 1016.6
20260830202003 92 267 2.0 6.0 0.00 0.00 0.00 52 1016.7
20260830201524 91 279 2.0 4.0 0.00 0.00 0.00 53 1016.8
20260830201003 91 270 3.0 7.0 0.00 0.00 0.00 54 1016.8
20260830200503 91 251 3.0 7.0 0.00 0.00 0.00 49 1016.9
20260830200003 91 254 2.0 5.0 0.00 0.00 0.00 54 1017.0
20260830195503 91 291 2.0 5.0 0.00 0.00 0.00 59 1017.1
20260830195024 91 286 2.0 6.0 0.00 0.00 0.00 58 1017.1
20260830194503 90 271 3.0 7.0 0.00 0.00 0.00 56 1017.1
20260830194003 90 285 3.0 7.0 0.00 0.00 0.00 54 1017.2
20260830193503 90 288 3.0 8.0 0.00 0.00 0.00 59 1017.3
20260830193003 90 275 3.0 8.0 0.00 0.00 0.00 58 1017.4
20260830192503 90 289 2.0 5.0 0.00 0.00 0.00 57 1017.4
20260830192003 90 300 2.0 5.0 0.00 0.00 0.00 57 1017.6
20260830191503 89 278 2.0 6.0 0.00 0.00 0.00 59 1017.7
20260830191003 88 257 3.0 7.0 0.00 0.00 0.00 61 1017.8
20260830190503 87 247 2.0 8.0 0.00 0.00 0.00 58 1017.9
20260830190003 88 253 2.0 8.0 0.00 0.00 0.00 57 1017.9
20260830185503 88 262 4.0 9.0 0.00 0.00 0.00 57 1017.9
20260830185003 88 265 4.0 9.0 0.00 0.00 0.00 54 1018.1
20260830184524 88 262 3.0 8.0 0.00 0.00 0.00 60 1018.0
20260830184003 88 266 2.0 7.0 0.00 0.00 0.00 58 1018.1
20260830183503 89 271 3.0 8.0 0.00 0.00 0.00 60 1018.2
20260830183003 89 275 4.0 8.0 0.00 0.00 0.00 57 1018.2
20260830182503 89 279 3.0 7.0 0.00 0.00 0.00 60 1018.3
20260830182024 90 274 2.0 5.0 0.00 0.00 0.00 61 1018.3
20260830181503 89 232 2.0 6.0 0.00 0.00 0.00 57 1018.4
20260830181003 89 217 3.0 6.0 0.00 0.00 0.00 59 1018.4
20260830180503 89 239 3.0 11.0 0.00 0.00 0.00 58 1018.4
20260830180024 89 243 4.0 11.0 0.00 0.00 0.00 57 1018.5
20260830175503 89 231 3.0 9.0 0.00 0.00 0.00 62 1018.6
20260830175003 88 235 3.0 8.0 0.00 0.00 0.00 58 1018.6
20260830174503 88 238 4.0 9.0 0.00 0.00 0.00 59 1018.7
20260830174003 88 240 3.0 9.0 0.00 0.00 0.00 63 1018.7
20260830173524 87 247 3.0 8.0 0.00 0.00 0.00 62 1018.8
20260830173003 87 246 3.0 8.0 0.00 0.00 0.00 58 1018.7
20260830172503 88 243 3.0 8.0 0.00 0.00 0.00 60 1018.8
20260830172003 88 245 4.0 8.0 0.00 0.00 0.00 60 1018.9
20260830171503 89 260 4.0 11.0 0.00 0.00 0.00 60 1018.8
20260830171003 88 257 5.0 11.0 0.00 0.00 0.00 61 1018.8
20260830170503 88 242 5.0 13.0 0.00 0.00 0.00 62 1018.9
20260830170003 88 245 4.0 13.0 0.00 0.00 0.00 63 1019.0
20260830165503 88 245 3.0 9.0 0.00 0.00 0.00 63 1019.0
20260830165024 88 230 3.0 10.0 0.00 0.00 0.00 64 1019.1
20260830164503 88 239 4.0 13.0 0.00 0.00 0.00 67 1019.1
20260830164003 88 238 4.0 13.0 0.00 0.00 0.00 67 1019.0
20260830163503 88 250 3.0 8.0 0.00 0.00 0.00 66 1019.1
20260830163003 88 241 3.0 7.0 0.00 0.00 0.00 67 1019.1
20260830162503 88 211 2.0 7.0 0.00 0.00 0.00 68 1019.1
20260830162003 88 223 3.0 7.0 0.00 0.00 0.00 68 1019.2
20260830161503 87 234 3.0 7.0 0.00 0.00 0.00 69 1019.2
20260830161004 87 228 3.0 7.0 0.00 0.00 0.00 71 1019.2
20260830160503 87 225 2.0 7.0 0.00 0.00 0.00 69 1019.1
20260830160003 87 225 3.0 8.0 0.00 0.00 0.00 70 1019.2
20260830155524 87 205 3.0 8.0 0.00 0.00 0.00 71 1019.2
20260830155003 86 200 2.0 7.0 0.00 0.00 0.00 71 1019.1
20260830154503 86 225 2.0 7.0 0.00 0.00 0.00 73 1019.1
20260830154003 86 237 2.0 9.0 0.00 0.00 0.00 74 1019.1
20260830153524 86 221 2.0 9.0 0.00 0.00 0.00 72 1019.1
20260830153003 86 211 2.0 5.0 0.00 0.00 0.00 73 1019.0
20260830152503 85 219 2.0 6.0 0.00 0.00 0.00 71 1019.0